Location: Newark
(49.2191°N, 12.6671°E)
Time: 05:42:09
(UTC+00:00)

SR - Visible Passes

Search period start: 20 January 2020 00:00
Search period end: 30 January 2020 00:00
Orbit: 574 x 882 km, 66.7° (Epoch: 19 January)

Date Brightness Start Highest point End Pass type
(mag) Time Alt. Az. Time Alt. Az. Time Alt. Az.
20 Jan ? 03:29:56 14° N 03:29:56 14° N 03:32:44 10° NNE visible
20 Jan ? 05:09:36 10° NNW 05:14:09 23° NNE 05:18:29 10° E visible
21 Jan ? 02:41:35 12° NNE 02:41:35 12° NNE 02:42:16 10° NNE visible
21 Jan ? 04:20:59 13° NNW 04:23:48 18° NNE 04:27:32 10° ENE visible
21 Jan ? 06:01:54 10° NNW 06:07:25 46° NE 06:12:31 10° ESE visible
22 Jan ? 03:32:38 15° N 03:33:20 15° N 03:36:29 10° NE visible
22 Jan ? 05:12:17 10° NNW 05:17:22 30° NE 05:22:07 10° E visible
23 Jan ? 02:44:19 13° NNE 02:44:19 13° NNE 02:45:39 10° NNE visible
23 Jan ? 04:23:43 14° NNW 04:27:08 22° NNE 04:31:23 10° ENE visible
23 Jan ? 06:04:36 10° NNW 06:10:19 70° NE 06:15:33 10° SE visible
24 Jan ? 03:35:25 16° N 03:36:46 17° NNE 03:40:24 10° ENE visible
24 Jan ? 05:14:57 10° NNW 05:20:25 44° NE 05:25:29 10° ESE visible
25 Jan ? 02:47:09 14° NNE 02:47:09 14° NNE 02:49:23 10° NE visible
25 Jan ? 04:26:34 15° NNW 04:30:21 29° NE 04:35:02 10° E visible
25 Jan ? 06:07:24 10° NW 06:13:03 73° WSW 06:18:12 10° SSE visible
26 Jan ? 03:38:19 19° N 03:40:07 21° NNE 03:44:17 10° ENE visible
26 Jan ? 05:17:44 10° NNW 05:23:20 67° NE 05:28:32 10° SE visible
27 Jan ? 02:50:07 17° NNE 02:50:07 17° NNE 02:53:17 10° ENE visible
27 Jan ? 04:29:32 18° NNW 04:33:26 42° NE 04:38:26 10° ESE visible
27 Jan ? 06:10:21 10° NW 06:15:36 43° WSW 06:20:25 10° S visible
28 Jan ? 02:01:59 11° NE 02:01:59 11° NE 02:02:16 10° NE visible
28 Jan ? 03:41:24 23° N 03:43:20 28° NE 03:47:57 10° E visible
28 Jan ? 05:20:49 12° NW 05:26:05 77° WSW 05:31:13 10° SSE visible
29 Jan ? 02:53:19 21° NNE 02:53:19 21° NNE 02:57:10 10° ENE visible
29 Jan ? 04:32:45 22° NNW 04:36:21 64° NE 04:41:30 10° SE visible
